Powrót do katalogu

CZ-6A DEB

AktywnySSO
NORAD 55898·DEBRIS·🇨🇳 China

Wystrzelony Nov 11, 2022 z Taiyuan Satellite Launch Center

Loading…

Następne Przeloty (najbliższe 24 godziny)

TLE

ŚwieżeSource: Space-Track

Epoka: Sep 13, 2026, 22:13 UTC

1 55898U 22151AAW 26256.92629801  .00000776  00000-0  42219-3 0  9995
2 55898  98.8289 257.1737 0058094 103.4263 257.3394 14.14261411191445

Śledź CZ-6A DEB w czasie rzeczywistym z AllMySat

Download on the App Store